Time,TemperatureF,DewpointF,PressureIn,WindDirection,WindDirectionDegrees,WindSpeedMPH,WindSpeedGustMPH,Humidity,HourlyPrecipIn,Conditions,Clouds,dailyrainin,SoftwareType,DateUTC
2013-05-20 00:01:00,51.0,48.0,30.33,NNW,327,0.0,0.0,91,0.00,,,0.00,,2013-05-20 07:01:00,
2013-05-20 00:11:00,51.0,48.0,30.33,NNW,327,0.0,0.0,91,0.00,,,0.00,,2013-05-20 07:11:00,
2013-05-20 00:21:00,50.0,47.0,30.33,NNW,327,0.0,0.0,91,0.00,,,0.00,,2013-05-20 07:21:00,
2013-05-20 00:32:00,50.0,47.0,30.33,NNW,327,0.0,0.0,91,0.00,,,0.00,,2013-05-20 07:32:00,
2013-05-20 00:41:00,50.0,47.0,30.33,NNW,327,0.0,0.0,91,0.00,,,0.00,,2013-05-20 07:41:00,
2013-05-20 00:52:00,50.0,47.0,30.33,NW,326,0.0,0.0,91,0.00,,,0.00,,2013-05-20 07:52:00,
2013-05-20 01:01:00,50.0,47.0,30.33,NNW,327,0.0,0.0,91,0.00,,,0.00,,2013-05-20 08:01:00,
2013-05-20 01:11:00,50.0,47.0,30.33,NNW,327,0.0,0.0,91,0.00,,,0.00,,2013-05-20 08:11:00,
2013-05-20 01:21:00,50.0,47.0,30.33,NNW,327,0.0,0.0,91,0.00,,,0.00,,2013-05-20 08:21:00,
2013-05-20 01:31:00,49.0,46.0,30.33,NNW,327,0.0,0.0,91,0.00,,,0.00,,2013-05-20 08:31:00,
2013-05-20 01:41:00,49.0,46.0,30.33,NNW,327,0.0,0.0,91,0.00,,,0.00,,2013-05-20 08:41:00,
2013-05-20 01:52:00,49.0,46.0,30.33,NW,326,0.0,0.0,91,0.00,,,0.00,,2013-05-20 08:52:00,
2013-05-20 02:01:00,49.0,47.0,30.33,NW,326,0.0,0.0,92,0.00,,,0.00,,2013-05-20 09:01:00,
2013-05-20 02:12:00,49.0,47.0,30.33,NW,326,0.0,0.0,92,0.00,,,0.00,,2013-05-20 09:12:00,
2013-05-20 02:21:00,49.0,47.0,30.33,NNW,327,0.0,0.0,93,0.00,,,0.00,,2013-05-20 09:21:00,
2013-05-20 02:32:00,49.0,47.0,30.33,NW,326,0.0,0.0,94,0.00,,,0.00,,2013-05-20 09:32:00,
2013-05-20 02:42:00,49.0,47.0,30.33,NW,326,0.0,0.0,94,0.00,,,0.00,,2013-05-20 09:42:00,
2013-05-20 02:52:00,49.0,48.0,30.33,NNW,327,0.0,0.0,95,0.00,,,0.00,,2013-05-20 09:52:00,
2013-05-20 03:03:00,49.0,48.0,30.33,NNW,327,0.0,0.0,95,0.00,,,0.00,,2013-05-20 10:03:00,
2013-05-20 03:12:00,49.0,48.0,30.33,NNW,327,0.0,0.0,95,0.00,,,0.00,,2013-05-20 10:12:00,
2013-05-20 03:22:00,48.0,46.0,30.33,NNW,327,0.0,0.0,94,0.00,,,0.00,,2013-05-20 10:22:00,
2013-05-20 03:32:00,48.0,46.0,30.33,NNW,327,0.0,0.0,94,0.00,,,0.00,,2013-05-20 10:32:00,
2013-05-20 03:41:00,48.0,46.0,30.33,NNW,327,0.0,0.0,94,0.00,,,0.00,,2013-05-20 10:41:00,
2013-05-20 03:52:00,48.0,46.0,30.33,NNW,327,0.0,0.0,94,0.00,,,0.00,,2013-05-20 10:52:00,
2013-05-20 04:02:00,47.0,46.0,30.33,NNW,327,0.0,0.0,95,0.00,,,0.00,,2013-05-20 11:02:00,
2013-05-20 04:12:00,47.0,46.0,30.33,NNW,327,0.0,0.0,95,0.00,,,0.00,,2013-05-20 11:12:00,
2013-05-20 04:21:00,48.0,47.0,30.32,NNW,327,0.0,0.0,96,0.00,,,0.00,,2013-05-20 11:21:00,
2013-05-20 04:32:00,48.0,47.0,30.32,NNW,327,0.0,0.0,97,0.00,,,0.00,,2013-05-20 11:32:00,
2013-05-20 04:41:00,48.0,47.0,30.32,NNW,327,0.0,0.0,97,0.00,,,0.00,,2013-05-20 11:41:00,
2013-05-20 04:52:00,48.0,47.0,30.32,NNW,327,0.0,0.0,97,0.00,,,0.00,,2013-05-20 11:52:00,
2013-05-20 05:01:00,48.0,47.0,30.31,NNW,327,0.0,0.0,97,0.00,,,0.00,,2013-05-20 12:01:00,
2013-05-20 05:11:00,48.0,47.0,30.31,NNW,327,0.0,0.0,97,0.00,,,0.00,,2013-05-20 12:11:00,
2013-05-20 05:21:00,48.0,47.0,30.30,NNW,327,0.0,0.0,97,0.00,,,0.00,,2013-05-20 12:21:00,
2013-05-20 05:31:00,49.0,48.0,30.30,NW,326,0.0,0.0,97,0.00,,,0.00,,2013-05-20 12:31:00,
2013-05-20 05:41:00,49.0,48.0,30.30,NW,326,0.0,0.0,97,0.00,,,0.00,,2013-05-20 12:41:00,
2013-05-20 05:52:00,49.0,48.0,30.29,NNW,327,0.0,0.0,98,0.00,,,0.00,,2013-05-20 12:52:00,
2013-05-20 06:01:00,49.0,48.0,30.29,NNW,327,0.0,0.0,98,0.00,,,0.00,,2013-05-20 13:01:00,
2013-05-20 06:11:00,49.0,48.0,30.29,NNW,327,0.0,0.0,98,0.00,,,0.00,,2013-05-20 13:11:00,
2013-05-20 06:22:00,49.0,48.0,30.28,NW,326,0.0,1.0,98,0.00,,,0.00,,2013-05-20 13:22:00,
2013-05-20 06:31:00,49.0,48.0,30.28,NNW,327,0.0,1.0,98,0.00,,,0.00,,2013-05-20 13:31:00,
2013-05-20 06:41:00,49.0,48.0,30.28,NNW,327,0.0,1.0,98,0.00,,,0.00,,2013-05-20 13:41:00,
2013-05-20 06:52:00,49.0,48.0,30.28,NNW,327,0.0,1.0,98,0.00,,,0.00,,2013-05-20 13:52:00,
2013-05-20 07:01:00,49.0,48.0,30.28,NW,326,0.0,1.0,98,0.00,,,0.00,,2013-05-20 14:01:00,
2013-05-20 07:11:00,49.0,48.0,30.28,NW,326,0.0,1.0,98,0.00,,,0.00,,2013-05-20 14:11:00,
2013-05-20 07:21:00,49.0,48.0,30.27,NW,326,0.0,1.0,97,0.00,,,0.00,,2013-05-20 14:21:00,
2013-05-20 07:31:00,49.0,48.0,30.27,NNW,327,0.0,1.0,97,0.00,,,0.00,,2013-05-20 14:31:00,
2013-05-20 07:41:00,49.0,48.0,30.27,NNW,327,0.0,1.0,97,0.00,,,0.00,,2013-05-20 14:41:00,
2013-05-20 07:52:00,49.0,48.0,30.27,WNW,288,0.0,2.0,97,0.00,,,0.00,,2013-05-20 14:52:00,
2013-05-20 08:01:00,49.0,48.0,30.26,WNW,288,0.0,1.0,97,0.00,,,0.00,,2013-05-20 15:01:00,
2013-05-20 08:11:00,49.0,48.0,30.26,WNW,288,0.0,1.0,97,0.00,,,0.00,,2013-05-20 15:11:00,
2013-05-20 08:21:00,50.0,49.0,30.26,WNW,287,0.0,1.0,96,0.00,,,0.00,,2013-05-20 15:21:00,
2013-05-20 08:33:00,50.0,49.0,30.26,NNE,22,0.0,0.0,96,0.00,,,0.00,,2013-05-20 15:33:00,
2013-05-20 08:42:00,50.0,49.0,30.26,NNE,22,0.0,0.0,96,0.00,,,0.00,,2013-05-20 15:42:00,
2013-05-20 08:53:00,50.0,49.0,30.26,NNE,21,0.0,0.0,96,0.00,,,0.00,,2013-05-20 15:53:00,
2013-05-20 09:02:00,50.0,49.0,30.26,NNE,22,0.0,0.0,96,0.00,,,0.00,,2013-05-20 16:02:00,
2013-05-20 09:12:00,50.0,49.0,30.26,NNE,22,0.0,0.0,96,0.00,,,0.00,,2013-05-20 16:12:00,
2013-05-20 09:22:00,50.0,49.0,30.25,NNE,22,0.0,1.0,95,0.00,,,0.00,,2013-05-20 16:22:00,
2013-05-20 09:32:00,51.0,50.0,30.25,NNE,22,0.0,1.0,95,0.00,,,0.00,,2013-05-20 16:32:00,
2013-05-20 09:42:00,51.0,50.0,30.25,NNE,22,0.0,1.0,95,0.00,,,0.00,,2013-05-20 16:42:00,
2013-05-20 09:53:00,51.0,49.0,30.25,WNW,296,0.0,2.0,94,0.00,,,0.00,,2013-05-20 16:53:00,
2013-05-20 10:02:00,51.0,49.0,30.24,WNW,295,0.0,1.0,94,0.00,,,0.00,,2013-05-20 17:02:00,
2013-05-20 10:11:00,51.0,49.0,30.24,WNW,295,0.0,1.0,94,0.00,,,0.00,,2013-05-20 17:11:00,
2013-05-20 10:22:00,51.0,49.0,30.23,SSW,193,0.0,3.0,93,0.00,,,0.00,,2013-05-20 17:22:00,
2013-05-20 10:32:00,51.0,49.0,30.22,SSW,200,0.0,1.0,93,0.00,,,0.00,,2013-05-20 17:32:00,
2013-05-20 10:44:00,51.0,49.0,30.22,SSW,200,0.0,1.0,93,0.00,,,0.00,,2013-05-20 17:44:00,
2013-05-20 10:53:00,52.0,50.0,30.22,SSW,200,0.0,1.0,93,0.00,,,0.00,,2013-05-20 17:53:00,
2013-05-20 11:02:00,52.0,50.0,30.21,SSW,200,0.0,2.0,92,0.00,,,0.00,,2013-05-20 18:02:00,
2013-05-20 11:12:00,52.0,50.0,30.21,SSW,200,0.0,2.0,92,0.00,,,0.00,,2013-05-20 18:12:00,
2013-05-20 11:23:00,53.0,50.0,30.20,West,261,0.0,3.0,90,0.00,,,0.00,,2013-05-20 18:23:00,
2013-05-20 11:32:00,53.0,50.0,30.20,SSW,199,3.0,5.0,89,0.00,,,0.00,,2013-05-20 18:32:00,
2013-05-20 11:41:00,53.0,50.0,30.20,SSW,199,3.0,5.0,89,0.00,,,0.00,,2013-05-20 18:41:00,
2013-05-20 11:55:00,54.0,51.0,30.19,West,271,1.0,4.0,88,0.00,,,0.00,,2013-05-20 18:55:00,
2013-05-20 12:04:00,54.0,50.0,30.19,SSW,195,1.0,4.0,87,0.00,,,0.00,,2013-05-20 19:04:00,
2013-05-20 12:11:00,54.0,50.0,30.19,SSW,195,1.0,4.0,87,0.00,,,0.00,,2013-05-20 19:11:00,
2013-05-20 12:21:00,54.0,51.0,30.19,SW,234,1.0,3.0,88,0.00,,,0.00,,2013-05-20 19:21:00,
2013-05-20 12:32:00,55.0,50.0,30.18,WNW,290,3.0,5.0,84,0.00,,,0.00,,2013-05-20 19:32:00,
2013-05-20 12:41:00,55.0,50.0,30.18,WNW,290,3.0,5.0,84,0.00,,,0.00,,2013-05-20 19:41:00,
2013-05-20 12:52:00,56.0,51.0,30.17,SW,216,1.0,3.0,83,0.00,,,0.00,,2013-05-20 19:52:00,
2013-05-20 13:01:00,56.0,51.0,30.17,NNW,331,1.0,7.0,82,0.00,,,0.00,,2013-05-20 20:01:00,
2013-05-20 13:11:00,56.0,51.0,30.17,NNW,331,1.0,7.0,82,0.00,,,0.00,,2013-05-20 20:11:00,
2013-05-20 13:21:00,58.0,52.0,30.15,WSW,241,2.0,4.0,79,0.00,,,0.00,,2013-05-20 20:21:00,
2013-05-20 13:32:00,58.0,52.0,30.14,SSW,198,1.0,6.0,79,0.00,,,0.00,,2013-05-20 20:32:00,
2013-05-20 13:42:00,60.0,53.0,30.14,East,95,1.0,5.0,78,0.00,,,0.00,,2013-05-20 20:42:00,
2013-05-20 13:52:00,60.0,53.0,30.14,East,95,1.0,5.0,78,0.00,,,0.00,,2013-05-20 20:52:00,
2013-05-20 14:01:00,61.0,55.0,30.13,SW,229,1.0,4.0,80,0.00,,,0.00,,2013-05-20 21:01:00,
2013-05-20 14:11:00,61.0,55.0,30.13,SW,229,1.0,4.0,80,0.00,,,0.00,,2013-05-20 21:11:00,
2013-05-20 14:21:00,61.0,53.0,30.12,NNW,337,1.0,7.0,74,0.00,,,0.00,,2013-05-20 21:21:00,
2013-05-20 14:32:00,61.0,52.0,30.11,SW,217,1.0,4.0,72,0.00,,,0.00,,2013-05-20 21:32:00,
2013-05-20 14:42:00,63.0,53.0,30.11,WNW,296,2.0,7.0,71,0.00,,,0.00,,2013-05-20 21:42:00,
2013-05-20 14:53:00,63.0,53.0,30.11,WNW,296,2.0,7.0,71,0.00,,,0.00,,2013-05-20 21:53:00,
2013-05-20 15:02:00,62.0,52.0,30.10,WNW,294,2.0,9.0,69,0.00,,,0.00,,2013-05-20 22:02:00,
2013-05-20 15:12:00,62.0,52.0,30.10,WNW,294,2.0,9.0,69,0.00,,,0.00,,2013-05-20 22:12:00,
2013-05-20 15:22:00,63.0,54.0,30.09,East,83,1.0,5.0,72,0.00,,,0.00,,2013-05-20 22:22:00,
2013-05-20 15:33:00,63.0,53.0,30.07,SW,225,1.0,6.0,70,0.00,,,0.00,,2013-05-20 22:33:00,
2013-05-20 15:42:00,63.0,53.0,30.07,SW,225,1.0,6.0,70,0.00,,,0.00,,2013-05-20 22:42:00,
2013-05-20 15:52:00,63.0,52.0,30.07,SW,216,3.0,6.0,67,0.00,,,0.00,,2013-05-20 22:52:00,
2013-05-20 16:02:00,65.0,53.0,30.06,WNW,293,2.0,4.0,65,0.00,,,0.00,,2013-05-20 23:02:00,
2013-05-20 16:12:00,65.0,53.0,30.06,WNW,293,2.0,4.0,65,0.00,,,0.00,,2013-05-20 23:12:00,
2013-05-20 16:21:00,64.0,54.0,30.06,West,263,0.0,4.0,70,0.00,,,0.00,,2013-05-20 23:21:00,
2013-05-20 16:32:00,65.0,52.0,30.04,WSW,256,1.0,5.0,63,0.00,,,0.00,,2013-05-20 23:32:00,
2013-05-20 16:41:00,65.0,52.0,30.04,WSW,256,1.0,5.0,63,0.00,,,0.00,,2013-05-20 23:41:00,
2013-05-20 16:52:00,64.0,51.0,30.03,West,273,1.0,8.0,63,0.00,,,0.00,,2013-05-20 23:52:00,
2013-05-20 17:01:00,66.0,52.0,30.03,West,279,3.0,7.0,61,0.00,,,0.00,,2013-05-21 00:01:00,
2013-05-20 17:21:00,65.0,50.0,30.02,WSW,254,3.0,5.0,58,0.00,,,0.00,,2013-05-21 00:21:00,
2013-05-20 17:31:00,64.0,48.0,30.01,South,186,2.0,7.0,57,0.00,,,0.00,,2013-05-21 00:31:00,
2013-05-20 17:41:00,65.0,48.0,30.00,WSW,242,2.0,6.0,55,0.00,,,0.00,,2013-05-21 00:41:00,
2013-05-20 17:52:00,65.0,48.0,30.00,WSW,242,2.0,6.0,55,0.00,,,0.00,,2013-05-21 00:52:00,
2013-05-20 18:01:00,65.0,48.0,30.00,WSW,257,2.0,8.0,55,0.00,,,0.00,,2013-05-21 01:01:00,
2013-05-20 18:11:00,65.0,48.0,30.00,WSW,257,2.0,8.0,55,0.00,,,0.00,,2013-05-21 01:11:00,
2013-05-20 18:21:00,65.0,50.0,29.99,WSW,245,2.0,8.0,59,0.00,,,0.00,,2013-05-21 01:21:00,
2013-05-20 18:32:00,65.0,49.0,29.98,SW,229,2.0,5.0,57,0.00,,,0.00,,2013-05-21 01:32:00,
2013-05-20 18:42:00,64.0,50.0,29.97,SW,234,1.0,7.0,60,0.00,,,0.00,,2013-05-21 01:42:00,
2013-05-20 18:52:00,64.0,50.0,29.97,SW,234,1.0,7.0,60,0.00,,,0.00,,2013-05-21 01:52:00,
2013-05-20 19:01:00,65.0,50.0,29.96,South,176,1.0,6.0,58,0.00,,,0.00,,2013-05-21 02:01:00,
2013-05-20 19:11:00,65.0,50.0,29.96,South,176,1.0,6.0,58,0.00,,,0.00,,2013-05-21 02:11:00,
2013-05-20 19:21:00,65.0,49.0,29.96,SW,222,2.0,6.0,56,0.00,,,0.00,,2013-05-21 02:21:00,
2013-05-20 19:32:00,65.0,49.0,29.95,WNW,283,2.0,6.0,57,0.00,,,0.00,,2013-05-21 02:32:00,
2013-05-20 19:41:00,64.0,50.0,29.95,West,262,2.0,5.0,61,0.00,,,0.00,,2013-05-21 02:41:00,
2013-05-20 19:52:00,64.0,50.0,29.95,West,262,2.0,5.0,61,0.00,,,0.00,,2013-05-21 02:52:00,
2013-05-20 20:01:00,61.0,52.0,29.95,West,269,1.0,5.0,72,0.00,,,0.00,,2013-05-21 03:01:00,
2013-05-20 20:11:00,61.0,52.0,29.95,West,269,1.0,5.0,72,0.00,,,0.00,,2013-05-21 03:11:00,
2013-05-20 20:21:00,59.0,51.0,29.94,WNW,303,1.0,4.0,76,0.00,,,0.00,,2013-05-21 03:21:00,
2013-05-20 20:33:00,58.0,52.0,29.94,NW,319,1.0,5.0,80,0.00,,,0.00,,2013-05-21 03:33:00,
2013-05-20 20:42:00,57.0,51.0,29.94,NNW,348,0.0,4.0,81,0.00,,,0.00,,2013-05-21 03:42:00,
2013-05-20 20:53:00,57.0,51.0,29.94,NNW,348,0.0,4.0,81,0.00,,,0.00,,2013-05-21 03:53:00,
2013-05-20 21:03:00,56.0,51.0,29.94,NW,306,0.0,4.0,82,0.00,,,0.00,,2013-05-21 04:03:00,
2013-05-20 21:12:00,56.0,51.0,29.94,NW,306,0.0,4.0,82,0.00,,,0.00,,2013-05-21 04:12:00,
2013-05-20 21:22:00,56.0,51.0,29.94,WNW,294,1.0,6.0,82,0.00,,,0.00,,2013-05-21 04:22:00,
2013-05-20 21:33:00,55.0,50.0,29.93,NW,308,0.0,3.0,84,0.00,,,0.00,,2013-05-21 04:33:00,
2013-05-20 21:42:00,55.0,50.0,29.93,NW,308,0.0,3.0,84,0.00,,,0.00,,2013-05-21 04:42:00,
2013-05-20 21:52:00,55.0,50.0,29.93,NNW,348,0.0,3.0,84,0.00,,,0.00,,2013-05-21 04:52:00,
2013-05-20 22:02:00,55.0,49.0,29.93,North,5,0.0,4.0,81,0.00,,,0.00,,2013-05-21 05:02:00,
2013-05-20 22:11:00,55.0,49.0,29.93,North,5,0.0,4.0,81,0.00,,,0.00,,2013-05-21 05:11:00,
2013-05-20 22:21:00,55.0,49.0,29.92,NE,34,0.0,2.0,81,0.00,,,0.00,,2013-05-21 05:21:00,
2013-05-20 22:31:00,54.0,49.0,29.91,North,5,0.0,5.0,82,0.00,,,0.00,,2013-05-21 05:31:00,
2013-05-20 22:42:00,54.0,49.0,29.91,NNW,332,0.0,3.0,82,0.00,,,0.00,,2013-05-21 05:42:00,
2013-05-20 22:52:00,54.0,49.0,29.91,NNW,332,0.0,3.0,82,0.00,,,0.00,,2013-05-21 05:52:00,
2013-05-20 23:01:00,54.0,49.0,29.90,ENE,61,1.0,4.0,83,0.00,,,0.00,,2013-05-21 06:01:00,
2013-05-20 23:11:00,54.0,49.0,29.90,ENE,61,1.0,4.0,83,0.00,,,0.00,,2013-05-21 06:11:00,
2013-05-20 23:21:00,54.0,49.0,29.89,ENE,71,0.0,5.0,84,0.00,,,0.00,,2013-05-21 06:21:00,
2013-05-20 23:32:00,53.0,49.0,29.89,ENE,63,0.0,2.0,85,0.00,,,0.00,,2013-05-21 06:32:00,
2013-05-20 23:41:00,53.0,49.0,29.89,ENE,63,0.0,2.0,85,0.00,,,0.00,,2013-05-21 06:41:00,
2013-05-20 23:52:00,53.0,49.0,29.88,East,84,1.0,3.0,85,0.00,,,0.00,,2013-05-21 06:52:00,